INMARSAT 5-F2

Last updated on Sat Jun 14 2025 00:02:46 GMT+0000 (Coordinated Universal Time)

1 40384U 15005A 25164.43517053 -.00000270 00000+0 00000+0 0 9994 2 40384 0.0163 20.4435 0000913 228.7747 114.4245 1.00281826 37299
UTC large
Height (km)
Speed (km/s)
/
Latitude / Longitude
Inclination (degrees)
Orbital Period (minutes)
Azimuth
Elevation
Range (km)
Doppler Factor

Next 0 passes for location: London (51.5072 / 0.1276)

Sorry there are no passes over London.